Location: Newark
(48.8604°N, 2.3376°E)
Time: 12:17:47
(UTC+00:00)

XW-2C - Pass Details

Date: 10 December 2021
Orbit: 503 x 524 km, 97.5° (Epoch: 21 January)

Event Time Altitude Azimuth Distance (km) Brightness Sun altitude
Rises 06:53:25 0° 2° (N) 2,674 ? -6.4°
Reaches altitude 10° 06:55:47 10° 349° (N) 1,780 ? -6.1°
Maximum altitude 06:58:56 25° 294° (WNW) 1,100 ? -5.6°
Drops below altitude 10° 07:02:04 10° 239° (WSW) 1,764 ? -5.1°
Sets 07:04:25 0° 225° (SW) 2,646 ? -4.8°
